Total_Precipitation_Accumulation
3.68 3.63 3.58 3.57 3.52 3.46 3.63 3.73 3.60 3.92 4.09 3.63 3.18 3.01 3.06 3.18 3.12 3.14 2.90 2.67 2.61 2.88 3.43 3.81 3.77 3.61 3.45 3.33 3.35 3.33 3.19 2.88 2.65 2.43 2.30 2.38 2.35 2.28 2.24 2.20 2.13 2.05 1.97
3.83 3.91 3.76 3.62 3.37 3.26 3.34 3.49 3.61 4.06 4.04 3.82 3.40 3.13 3.02 3.01 2.85 2.78 2.89 3.03 2.85 2.76 2.99 3.47 3.91 3.96 3.91 3.71 3.50 3.46 3.41 3.33 3.05 2.56 2.31 2.37 2.44 2.41 2.37 2.31 2.16 2.00 1.89
3.61 3.58 3.35 3.21 3.17 3.26 3.45 3.45 3.65 3.83 3.53 3.57 3.41 3.16 2.89 2.66 2.51 2.53 2.72 2.94 2.81 2.78 3.01 3.27 3.59 3.86 4.12 4.30 4.18 4.01 3.70 3.40 3.19 2.86 2.52 2.35 2.32 2.28 2.21 2.19 2.16 2.02 1.83
3.07 3.37 3.15 3.02 3.31 3.33 3.46 3.76 3.92 3.82 3.81 3.86 3.56 3.12 2.83 2.70 2.34 2.28 2.29 2.49 2.73 2.50 2.85 3.15 3.27 3.46 3.97 4.60 4.86 4.79 4.39 3.97 3.65 3.37 3.03 2.70 2.55 2.36 2.14 1.98 1.99 1.91 1.73
2.92 3.28 3.31 3.41 3.42 3.55 3.62 3.42 3.87 3.94 3.91 3.96 3.43 3.16 2.79 2.52 2.35 2.17 2.08 2.06 2.33 2.56 2.69 2.77 2.93 3.14 3.74 4.69 5.17 5.24 5.09 4.63 4.00 3.81 3.65 3.36 3.15 2.82 2.46 2.18 2.03 1.87 1.73
3.00 3.42 3.30 3.30 3.34 3.58 3.71 3.65 3.82 3.88 3.64 3.65 3.25 3.19 2.76 2.25 2.16 2.10 1.92 1.96 2.11 2.19 2.54 2.89 3.18 2.90 3.26 3.95 4.48 5.06 5.41 5.12 4.43 4.04 4.10 4.02 3.86 3.48 2.88 2.48 2.29 2.09 1.93
3.04 3.51 3.27 3.56 3.49 3.54 3.60 3.64 3.81 3.73 3.45 3.63 3.76 3.33 2.68 2.20 2.16 1.93 1.89 1.97 2.03 2.08 2.48 2.99 3.27 3.16 2.89 2.96 3.37 3.96 4.79 5.11 4.81 4.39 4.25 4.25 4.30 4.08 3.43 2.92 2.66 2.40 2.22
3.25 3.29 3.54 3.50 3.58 3.74 3.71 3.69 3.83 3.60 3.24 3.53 3.94 4.03 3.28 2.83 2.30 1.72 1.85 2.01 2.23 2.37 2.47 2.67 2.87 3.12 3.16 3.32 3.06 3.01 3.80 4.70 5.10 4.93 4.58 4.22 4.14 4.06 3.78 3.49 3.10 2.80 2.62
3.50 3.51 3.50 3.46 3.51 3.31 3.42 3.51 3.52 3.54 3.47 3.39 3.71 4.09 3.67 3.20 2.73 2.04 1.88 1.94 2.25 2.56 2.57 2.62 2.69 3.00 3.20 3.65 3.76 3.38 3.21 3.75 4.62 5.36 5.26 4.60 4.07 3.87 3.82 3.72 3.59 3.29 2.99
3.31 3.14 3.09 3.27 3.31 3.08 3.19 2.85 3.04 3.24 3.24 3.09 3.38 3.45 3.48 3.49 3.39 2.69 2.19 1.98 2.12 2.34 2.51 2.44 2.53 2.81 3.16 3.56 3.91 3.67 3.11 2.94 3.43 4.50 5.14 5.02 4.57 4.12 3.82 3.82 4.09 4.08 3.67
3.03 2.71 2.75 3.00 2.98 2.90 2.82 2.73 2.94 2.79 2.71 2.79 3.03 3.23 3.31 3.42 3.30 3.10 2.63 2.57 2.51 2.36 2.32 2.34 2.55 2.75 3.02 3.38 3.85 3.61 3.32 3.05 2.89 3.14 3.81 4.37 4.58 4.46 4.28 4.48 4.96 5.22 5.02
2.77 2.47 2.37 2.60 2.75 2.81 2.79 2.75 2.84 2.73 2.76 2.87 2.87 2.94 3.20 3.24 3.22 3.34 2.85 2.67 2.70 2.41 2.32 2.44 2.49 2.74 2.86 3.09 3.20 3.30 3.20 2.99 2.82 2.79 3.01 3.38 3.73 4.05 4.20 4.52 5.07 5.54 5.80
2.41 2.36 2.39 2.55 2.60 2.68 2.56 2.62 2.70 2.71 2.87 2.93 2.85 2.79 2.91 2.95 3.05 3.34 3.28 2.91 2.76 2.56 2.62 2.53 2.39 2.48 2.47 2.64 2.81 2.87 2.61 2.46 2.36 2.35 2.45 2.62 2.71 3.05 3.40 3.88 4.53 5.07 5.39
2.38 2.49 2.50 2.38 2.34 2.43 2.31 2.61 2.54 2.58 2.82 2.90 2.61 2.90 2.93 2.91 3.19 3.44 3.54 3.62 3.27 2.93 2.86 2.79 2.63 2.42 2.44 2.47 2.54 2.49 2.24 2.18 1.90 1.88 1.98 2.12 2.24 2.40 2.68 3.01 3.60 4.04 4.16
2.42 2.58 2.57 2.49 2.38 2.44 2.56 2.84 2.75 2.67 2.90 2.89 2.90 3.13 3.07 2.99 3.13 3.27 3.48 3.73 3.85 3.43 3.17 3.13 2.94 2.57 2.44 2.44 2.46 2.21 2.27 2.21 1.93 1.80 1.72 1.70 1.82 1.94 2.02 2.24 2.60 2.85 3.01
2.31 2.55 2.71 2.60 2.46 2.47 2.64 2.82 2.78 2.93 3.12 3.16 3.25 3.34 3.30 3.11 3.20 3.24 3.29 3.53 3.87 3.79 3.36 2.96 2.76 2.44 2.31 2.15 2.36 2.14 2.20 2.22 2.00 1.85 1.68 1.60 1.64 1.68 1.69 1.74 1.97 2.21 2.39
2.39 2.46 2.57 2.55 2.46 2.48 2.61 2.68 2.64 2.97 3.13 3.15 3.14 3.15 3.13 3.29 3.27 3.15 3.26 3.44 3.72 3.81 3.39 2.80 2.67 2.62 2.63 2.50 2.49 2.32 2.19 2.15 1.94 1.84 1.67 1.61 1.62 1.64 1.67 1.67 1.72 1.84 1.92
2.39 2.34 2.40 2.39 2.26 2.29 2.51 2.53 2.58 2.90 3.06 2.93 2.95 2.99 2.75 2.85 2.95 2.81 2.96 3.03 3.18 3.45 3.35 2.98 2.89 2.85 2.82 2.73 2.72 2.63 2.33 2.09 1.83 1.83 1.64 1.59 1.62 1.63 1.64 1.64 1.68 1.71 1.83
2.12 2.13 2.14 2.16 2.21 2.37 2.47 2.46 2.49 2.49 2.52 2.60 2.83 2.95 2.74 2.73 2.64 2.66 2.71 2.69 2.76 2.87 3.15 3.04 2.87 2.92 2.85 2.86 2.80 2.58 2.37 2.24 1.85 1.79 1.77 1.67 1.62 1.57 1.55 1.55 1.57 1.68 1.91
1.93 2.00 2.08 2.17 2.23 2.30 2.35 2.44 2.50 2.41 2.38 2.43 2.58 2.67 2.64 2.59 2.51 2.63 2.56 2.59 2.66 2.83 3.00 3.04 2.91 3.01 2.99 2.95 3.02 2.80 2.80 2.61 2.32 2.00 1.96 1.84 1.81 1.78 1.69 1.57 1.51 1.57 1.81
2.00 2.08 2.15 2.16 2.14 2.11 2.04 2.14 2.21 2.25 2.40 2.34 2.24 2.22 2.21 2.26 2.25 2.31 2.15 2.36 2.63 2.79 2.87 2.89 2.88 3.06 3.20 3.25 3.08 3.02 3.06 2.97 2.71 2.35 2.21 2.01 1.94 1.85 1.85 1.81 1.69 1.60 1.62
2.14 2.15 2.09 2.12 2.09 1.79 1.99 2.06 2.07 2.17 2.30 2.31 2.17 2.03 1.92 1.90 1.84 1.88 1.86 1.97 2.27 2.49 2.63 2.79 2.77 2.88 3.10 3.30 3.45 3.41 3.27 3.16 3.03 2.81 2.71 2.57 2.39 2.31 2.19 2.01 1.95 1.81 1.69
2.28 2.19 2.10 2.09 2.10 2.17 2.25 2.06 1.91 1.87 1.98 2.03 1.99 1.96 1.70 1.60 1.81 1.78 1.84 1.81 1.83 2.00 2.18 2.44 2.54 2.48 2.69 3.01 3.34 3.24 3.41 3.46 3.33 3.29 3.29 3.09 2.79 2.56 2.27 2.09 2.00 1.72 1.59
2.45 2.42 2.33 2.24 2.22 2.19 2.18 1.96 1.95 1.84 1.84 1.86 1.88 1.91 1.89 1.81 1.87 2.01 1.98 1.89 1.76 1.74 1.87 1.95 2.03 2.18 2.43 2.81 3.14 3.11 3.20 3.29 3.28 3.24 3.28 3.18 2.85 2.65 2.35 2.19 2.17 1.88 1.60
2.52 2.46 2.39 2.41 2.36 2.36 2.40 2.18 2.19 2.01 2.01 2.02 2.05 2.06 2.04 1.93 2.09 2.03 1.93 1.91 1.86 1.85 1.94 2.06 1.99 2.06 2.30 2.48 2.70 2.81 2.80 2.89 2.78 2.69 2.86 3.03 2.94 2.84 2.65 2.40 2.23 2.06 1.68
2.55 2.56 2.56 2.52 2.51 2.53 2.75 2.56 2.40 2.21 2.20 2.20 2.30 2.30 2.35 2.18 2.16 2.09 1.94 1.95 1.95 1.98 2.10 2.04 2.00 1.95 1.97 2.22 2.51 2.54 2.74 2.99 2.83 2.58 2.34 2.51 2.65 2.89 2.98 2.67 2.42 2.26 2.11